Regional Weather Roundup
Issued by NWS Grand Forks, ND

Home | Current Version | Previous Version | Text Only | Print | Product List | Glossary Off
Versions: 1 2 3 4 5 6 7 8 9 10 11 12 13 14 15 16 17 18 19 20 21 22 23 24 25 26 27 28 29 30 31 32 33 34 35 36 37 38 39 40 41 42 43 44 45 46 47 48 49 50

000
ASUS43 KFGF 230131
RWRFGF
PRAIRIE TO PINES  WEATHER ROUNDUP
NATIONAL WEATHER SERVICE EASTERN NORTH DAKOTA/GRAND FORKS ND
800 PM CDT SAT JUL 22 2017

 **SATELLITE DATA USED TO AUGMENT SKY COVER AT AUTOMATED STATIONS**
 *****  WEATHER ACROSS EASTERN NORTH DAKOTA  *****

CITY           SKY/WX    TMP DP  RH WIND       PRES   REMARKS
GRAND FORKS    FAIR      74  59  59 NW15      29.86R
GRAND FRKS AFB NOT AVBL
DEVILS LAKE    FAIR      71  56  58 NW13G20   29.93R
FARGO          FAIR      79  60  52 NW9       29.85S
WAHPETON ARPT  FAIR      75  55  50 N8        29.85S
$$

 ***** WEATHER ACROSS CENTRAL AND WESTERN NORTH DAKOTA  *****

CITY           SKY/WX    TMP DP  RH WIND       PRES   REMARKS
BISMARCK       FAIR      81  51  35 N13       29.96R
MINOT          FAIR      75  54  47 N13       29.97R
JAMESTOWN      FAIR      77  56  48 N13       29.90R
MINOT AFB      NOT AVBL
GARRISON         N/A     77  52  41 N13       29.97R
WILLISTON      FAIR      83  46  27 NW13      30.00S
DICKINSON      FAIR      81  45  28 NW16G22   30.01R
HETTINGER      FAIR      83  42  23 N16G23    30.03S
$$

 *****  OTHER AIRPORT OBSERVATIONS IN OUR AREA  *****

CITY           SKY/WX    TMP DP  RH WIND       PRES   REMARKS
WALHALLA       NOT AVBL
GRAFTON AIRPOR MOCLDY    70  59  68 NW13G21   29.89R
VALLEY CITY AR FAIR      75  57  53 N9        29.91S
CANDO          NOT AVBL
CAVALIER APRT  LGT RAIN  64  61  88 N14       29.88R
GWINNER        CLEAR     75  61  60 N8        29.88R
SHEYENNE NWR     N/A     81  58  44 N5        29.95S
ROLLA            N/A     68  57  68 NW14      29.96S
 ***** THE ABOVE OBSERVATIONS ARE NON NWS ARE NOT QUALITY
       CONTROLLED AND MAY MIS-REPORT RAIN FOR SNOW...
$$

  *****  WEATHER ACROSS NORTHERN MINNESOTA  *****

CITY           SKY/WX    TMP DP  RH WIND       PRES   REMARKS
FLAG ISLAND    DRIZZLE   63  57  82 NW13      29.79R
WARROAD        LGT RAIN  63  57  82 W8        29.83R
ROSEAU         FAIR      66  59  77 W7        29.83S
HALLOCK        DRIZZLE   64  63  94 NW12      29.86S
THF RVR FALLS  LGT RAIN  68  59  73 NW14      29.86S
BAUDETTE       MOCLDY    64  61  90 W9        29.80S
WASKISH        FAIR      68  59  73 W12G21    29.82S
CROOKSTON      FAIR      70  61  73 N12       29.87R
STEPHEN NDAWN    N/A     70  63  78 W5          N/A
GREENBUSH NDAW   N/A     64  59  82 W5          N/A
$$
  *****  WEATHER ACROSS CENTRAL AND WEST MINNESOTA  *****

CITY           SKY/WX    TMP DP  RH WIND       PRES   REMARKS
FOSSTON        CLOUDY    66  55  68 NW12      29.87R
BEMIDJI        MOCLDY    72  55  54 W10       29.85R
PARK RAPIDS    FAIR      77  56  48 NW12      29.85F
ELBOW LAKE     FAIR      75  64  66 CALM      29.86S HAZE
WADENA         FAIR      73  59  60 CALM      29.86S
DETROIT LAKES  FAIR      72  59  64 NW9       29.88S
MOORHEAD       FAIR      75  57  53 N8        29.87R
FERGUS FALLS   MOCLDY    75  63  64 NW5       29.84S
MORRIS MN      FAIR      81  61  50 CALM      29.85S
STAPLES        FAIR      73  55  53 CALM      29.86S
$$
  *****  WEATHER ELSEWHERE ACROSS MINNESOTA  *****

CITY           SKY/WX    TMP DP  RH WIND       PRES   REMARKS
DULUTH         FAIR      60  56  86 SE8       29.82R
INTRNTL FALLS  FAIR      70  56  61 NW9       29.79R
ELY            FAIR      68  63  83 CALM      29.80S
CLOQUET        FAIR      64  57  77 SE3       29.82R
WHEATON        FAIR      77  63  61 N3        29.86S
BRAINERD       FAIR      77  49  37 NW9       29.84S
HIBBING        FAIR      74  53  48 W10       29.80R
ALEXANDRIA     FAIR      77  59  53 NW5       29.88F
SAINT CLOUD    FAIR      80  64  58 NW7       29.85R
MINNEAPOLIS    FAIR      85  63  47 NW9       29.82R
$$

  *****  WEATHER ACROSS SOUTH DAKOTA  *****

CITY           SKY/WX    TMP DP  RH WIND       PRES   REMARKS
SIOUX FALLS    FAIR      83  68  60 NW5       29.90S
BROOKINGS      FAIR      82  66  58 W3        29.91F
WATERTOWN      FAIR      81  58  45 W7        29.89F
HURON          FAIR      86  63  45 CALM      29.89S
SISSETON         N/A     84  64  50 CALM      29.83F
ABERDEEN       FAIR      86  52  30 NW13      29.87S
MITCHELL       FAIR      85  66  53 N5        29.90S
PIERRE         FAIR      91  41  17 N10       29.91S
MOBRIDGE       FAIR      85  52  32 N12       29.92R
RAPID CITY     FAIR      88  40  18 NE9       30.04S
$$

  *****  SOME WEATHER IN NEARBY STATES *****

CITY           SKY/WX    TMP DP  RH WIND       PRES   REMARKS
GLASGOW MT     FAIR      85  44  23 MISG      30.01S
GREAT FALLS MT FAIR      88  36  15 N7        30.07S
CHEYENNE WY    FAIR      84  46  26 E9        30.19S
SCOTTSBLUFF NE FAIR      86  55  34 S10       30.05S
OMAHA NE       MOCLDY    81  74  79 N8        29.88R
DES MOINES IA  CLOUDY    84  73  69 N5        29.85S HX  90
DAVENPORT IA   CLOUDY    79  74  84 N3        29.84R
CHICAGO IL     FAIR      81  69  67 E8        29.80R
EAU CLAIRE WI  FAIR      74  68  81 SW3       29.80R
LA CROSSE WI   FAIR      83  73  72 S8        29.79S
$$

  *****  SOME NATIONAL WEATHER *****

CITY           SKY/WX    TMP DP  RH WIND       PRES   REMARKS
LA GUARDIA NY  CLOUDY    82  67  60 S8        29.77R
RALEIGH NC     FAIR      89  73  59 SW14      29.88R HX  97
ATLANTA GA     MOCLDY    80  72  76 CALM      29.99R
NEW ORLEANS LA MOCLDY    79  73  82 SW3       29.97R
OKLAHOMA CITY  FAIR      95  61  32 S13       29.83S HX  95
ALBUQUERQUE NM PTSUNNY   86  51  29 S23       30.05R
SALT LAKE CITY PTSUNNY   95  45  17 N9        30.03S HX  91
LOS ANGELES CA FAIR      73  65  75 W13       29.84F
BOISE ID       FAIR      92  33  12 W14       30.01F
SEATTLE WA     FAIR      84  61  45 W10       30.09F
$$

*** WEATHER ACROSS MANITOBA...SASKATCHEWAN AND ONTARIO ***
                ***ONTARIO***

CITY           SKY/WX    TMP DP  RH WIND       PRES   REMARKS
GERALDTON      MOCLDY    68  54  60 S5        29.87S
THUNDER BAY    LGT RAIN  59  59 100 E7        29.86F
SIOUX LOOKOUT  MOCLDY    64  59  82 E5        29.84S
TORONTO        LGT RAIN  72  64  78 CALM      29.80S
BIG TROUT LK   CLEAR     70  39  32 E5        29.94S
PICKLE LAKE    MOCLDY    72  43  35 E7        29.88R
DRYDEN         MOCLDY    64  63  94 E6        29.82R
KENORA         LGT RAIN  61  59  94 N7        29.82R
$$
                *** MANITOBA***

CITY           SKY/WX    TMP DP  RH WIND       PRES   REMARKS
BRANDON        PTSUNNY   68  59  73 NW9       29.95R
DAUPHIN        PTSUNNY   70  61  73 N9        29.95R
ISLAND LAKE    NOT AVBL
PILOT MOUND      N/A     66  57  72 NW13G18     N/A
THE PAS        MOSUNNY   75  46  35 S5        29.94S
THOMPSON       MOSUNNY   79  41  25 S3        29.90S
WINNIPEG       MOSUNNY   66  61  82 N9        29.86R
LYNN LAKE      SUNNY     77  43  29 SW7       29.89S
CHURCHILL      MOSUNNY   72  46  40 SE14      29.86F
GILLAM         MOSUNNY   73  43  33 W3        29.91F
$$
                ***SASKATCHEWAN***

CITY           SKY/WX    TMP DP  RH WIND       PRES   REMARKS
ESTEVAN        MOSUNNY   73  55  53 N23       30.00R
KINDERSLEY     MOSUNNY   77  55  47 E5        29.98F
LLOYDMINSTER   PTSUNNY   73  59  60 S7        29.96F
PRINCE ALBERT  PTSUNNY   72  55  56 S7        29.99S
REGINA         MOSUNNY   75  52  43 N8        30.01R
YORKTON        SUNNY     70  55  60 N5        30.00S
N. BATTLEFORD  SUNNY     75  59  57 VRB2      29.99F
LA RONGE       MOSUNNY   73  52  46 SE8       29.92F
SASKATOON      MOSUNNY   73  57  56 NW5       30.00S
SWIFT CURRENT  SUNNY     75  48  38 N6        30.03F
$$
NOTE: THESE ARE AUTOMATED STATIONS WITH LIMITED QUALITY CONTROL
      "FAIR" INDICATES FEW OR NO CLOUDS BELOW 12,000 FEET WITH NO
      SIGNIFICANT WEATHER AND/OR OBSTRUCTIONS TO VISIBILITY.
      SKY/WX - SKY CONDITION AND SIGNIFICANT WEATHER.
      TMP - AIR TEMPERATURE.    DP   - DEWPOINT TEMPERATURE.
      RH  - RELATIVE HUMIDITY.  PRES - PRESSURE.
      HX  - HEAT INDEX.         WCI  - WIND CHILL INDEX.
$




USA.gov is the U.S. government's official web portal to all federal, state and local government web resources and services.